RH
12 12 12 12 12 12 12 12 12 12 12 12 11 12 12 12 11 11 11 11 11 12 15 16 15 15 14 13 10 9 7 7 6 6 6 6 7 8 8 10 12 15 18 22 23 28 31 29 32 35 38 39 40 43 49 56 60 59 62 67 67 66 64 61 61 64 63 62 62 65 65 64 63 60 59 58 57 56 56 57 57 57 57 56 57 58 56 56
10 11 11 11 12 11 12 11 12 12 12 11 11 11 11 11 11 11 11 11 11 11 13 15 16 15 15 14 12 10 8 8 6 5 5 5 6 7 7 8 9 12 15 19 21 27 33 30 31 35 37 39 39 43 47 52 57 55 57 62 62 62 62 59 62 63 61 62 63 63 61 61 60 58 58 58 59 57 58 60 58 55 54 54 55 56 55 54
7 8 9 9 10 10 11 10 11 11 11 11 11 11 11 11 11 11 11 11 11 11 11 13 16 16 15 14 13 12 9 7 6 4 4 5 5 6 7 7 8 10 12 16 18 23 29 30 29 30 33 37 39 43 44 47 53 52 52 56 58 60 61 60 61 61 60 63 63 61 59 59 59 59 59 60 60 57 58 61 58 54 51 51 53 52 52 52
5 6 6 6 7 8 8 9 9 10 11 11 11 11 11 11 10 11 11 11 11 11 11 12 15 16 16 15 14 13 11 9 7 5 6 6 5 5 6 7 7 8 9 12 16 20 25 28 27 27 29 33 38 44 44 44 48 49 49 51 54 58 60 59 59 60 60 60 62 60 58 58 58 60 59 59 63 60 60 61 58 54 48 48 50 48 49 50
5 5 5 5 5 6 6 7 8 9 9 10 10 11 10 10 10 10 11 11 12 11 11 12 14 16 16 15 14 13 13 12 9 7 7 7 5 5 5 6 6 6 7 9 13 18 22 24 25 27 27 30 39 45 43 43 46 48 49 50 52 54 57 59 59 60 58 57 61 59 57 58 58 59 56 58 62 59 59 61 57 53 49 47 47 46 47 48
5 5 5 4 5 5 5 5 6 6 7 8 9 9 10 10 10 10 10 10 11 11 12 13 15 17 16 16 15 13 14 12 10 9 7 7 6 5 5 6 6 6 6 6 10 15 20 21 24 29 28 30 40 43 40 42 44 47 50 51 53 53 54 58 58 59 57 55 57 56 54 55 57 59 57 58 60 57 58 60 56 51 48 49 48 46 46 47
6 5 5 5 5 4 5 5 5 5 5 6 7 8 8 9 10 10 10 10 11 11 12 15 16 17 16 16 16 14 14 12 9 9 7 7 7 6 6 6 5 5 5 5 7 12 16 18 23 31 33 32 37 40 39 41 42 44 48 50 53 53 51 54 56 56 57 55 54 53 51 50 56 60 60 57 56 57 59 60 56 49 47 49 48 46 44 45
6 6 6 6 5 5 5 4 4 5 5 5 5 6 7 8 8 9 10 10 10 10 12 15 16 17 17 17 16 17 17 12 9 8 6 6 6 6 6 6 6 6 5 5 6 10 13 16 22 32 37 36 36 37 38 41 42 42 44 46 48 50 50 52 53 54 55 55 53 54 52 52 56 57 57 59 55 55 58 59 56 49 47 46 45 45 44 43
6 6 6 6 6 6 5 5 5 4 4 4 5 5 5 6 7 8 9 9 10 10 11 14 16 16 18 17 17 20 18 12 9 9 7 5 5 6 6 7 7 7 6 5 5 8 11 14 23 31 37 39 39 37 36 39 41 40 40 42 42 43 47 50 50 50 53 54 54 55 53 52 54 52 54 59 56 55 57 57 56 50 46 43 41 44 44 44
7 6 6 6 6 6 6 5 5 5 4 4 4 5 5 5 5 7 8 9 10 10 11 13 15 16 18 18 18 21 17 11 10 9 7 6 5 5 6 6 7 7 7 6 4 6 8 12 23 31 34 37 39 37 35 35 37 38 39 40 39 39 43 47 48 48 49 52 53 55 52 50 53 52 54 57 57 57 56 56 55 49 45 42 41 42 41 44
7 6 6 6 6 6 6 5 5 5 5 4 5 4 4 5 4 5 6 7 8 9 11 12 13 16 18 18 20 22 16 13 13 10 9 8 6 5 5 6 7 6 6 6 5 5 7 12 22 30 31 32 35 35 33 32 32 34 36 37 38 38 39 43 46 47 50 51 52 53 51 50 52 52 52 55 57 58 56 57 55 49 46 42 41 41 40 42
6 6 6 6 6 6 5 5 5 5 5 5 5 4 4 4 5 6 6 7 8 9 10 12 14 15 17 19 20 20 17 14 14 13 12 10 8 7 5 6 7 7 6 6 5 4 6 12 22 26 26 28 31 32 32 30 31 31 32 33 34 36 37 39 41 45 49 50 50 53 53 52 51 50 50 52 54 57 57 56 55 51 49 45 43 42 41 41
5 5 5 5 5 5 5 5 5 5 5 5 5 4 5 5 6 7 7 8 8 9 9 11 14 14 18 22 19 17 17 16 14 14 14 12 11 9 6 6 7 8 7 6 6 5 6 13 21 22 23 25 28 30 31 30 31 32 31 31 32 34 37 37 38 41 45 48 50 52 55 54 49 47 51 51 51 56 58 56 55 53 51 47 44 44 42 40
5 5 5 5 5 5 5 4 4 4 4 4 4 5 6 7 8 8 9 9 9 10 9 11 15 16 22 23 14 14 17 16 15 14 15 14 12 11 8 7 7 9 8 7 8 7 9 15 19 19 20 22 24 28 29 31 31 31 32 31 31 34 36 37 38 40 41 45 48 50 54 53 47 46 50 50 47 53 58 56 56 55 54 48 44 44 43 39
5 5 5 4 4 4 4 4 4 4 4 4 5 6 8 10 10 9 9 10 11 12 9 10 13 17 25 23 11 13 16 17 17 15 15 15 13 12 10 8 8 9 9 9 9 8 12 17 18 17 17 19 22 26 28 31 30 30 32 32 32 34 35 37 38 38 39 43 44 48 52 51 46 45 49 50 46 48 53 55 55 56 56 52 45 44 44 40
5 5 5 4 5 4 4 4 4 4 4 5 6 7 9 10 9 9 10 12 15 14 10 11 15 18 25 22 13 15 17 17 17 16 17 16 14 13 11 10 9 9 9 9 9 10 15 17 17 16 15 16 20 24 27 30 30 29 30 31 32 33 33 35 37 36 37 42 43 44 48 48 45 44 49 51 47 46 50 53 55 55 56 54 47 45 45 42
6 6 5 5 5 4 4 4 4 4 4 6 8 7 8 8 7 10 14 16 18 17 11 13 20 22 21 17 14 16 17 18 18 17 17 17 16 14 14 15 12 10 9 10 11 12 16 17 16 15 14 14 17 22 27 28 29 29 28 28 30 33 33 33 36 35 34 40 44 43 45 46 44 44 49 51 46 46 51 55 57 55 55 55 50 47 44 41
6 6 6 5 5 5 5 4 4 4 6 8 9 7 8 7 7 12 16 15 17 20 17 17 21 21 17 15 16 15 15 19 19 19 19 18 17 14 15 18 16 12 11 12 13 14 16 16 15 15 13 13 15 19 23 23 25 27 27 26 26 30 32 32 34 35 33 37 42 44 45 43 42 45 48 50 46 45 52 57 57 54 54 56 53 49 47 44
7 6 6 5 5 5 5 5 5 5 7 10 10 8 8 6 7 13 14 11 13 17 18 20 21 18 14 16 17 14 16 20 20 20 19 19 19 15 17 20 19 16 14 14 14 14 15 17 16 15 14 13 13 15 17 19 22 24 25 24 24 26 28 29 32 34 36 37 39 42 45 42 41 45 46 48 47 45 51 56 57 55 55 56 54 51 50 48
7 6 6 6 6 6 5 6 5 6 8 10 10 9 8 6 6 10 10 8 8 10 11 13 15 13 11 14 16 16 17 19 19 20 19 20 20 16 18 23 21 19 17 15 15 14 15 18 18 17 15 13 12 13 14 17 20 23 24 23 23 25 26 25 29 35 37 38 40 40 43 41 40 44 45 47 48 46 48 53 56 57 56 55 54 52 51 50
7 6 6 6 6 5 5 6 6 6 7 10 11 10 7 7 7 7 7 7 8 8 8 8 8 9 9 11 15 16 16 17 18 19 19 20 19 17 19 23 22 21 18 16 17 16 17 18 17 16 15 13 12 11 12 15 17 20 23 23 22 24 25 23 26 33 36 37 39 39 40 40 39 41 44 46 46 43 43 48 53 54 54 53 53 53 52 49
7 6 6 6 6 6 5 6 7 6 6 10 11 9 7 7 7 7 7 8 8 8 8 8 8 8 8 8 13 16 15 16 17 17 19 19 18 18 20 23 22 22 20 19 19 18 18 16 14 15 15 13 13 11 11 12 15 17 21 23 22 22 23 25 26 31 34 34 36 37 38 39 37 39 44 45 43 41 41 42 44 46 48 49 51 53 52 48
7 7 6 6 6 6 5 6 8 6 8 11 11 8 7 7 7 8 8 9 9 9 8 8 8 9 8 6 10 15 14 13 15 16 17 19 18 18 21 22 22 22 22 21 21 20 18 14 12 14 15 14 14 12 11 11 13 15 18 21 22 20 21 27 28 28 31 33 34 35 36 38 37 37 41 45 44 41 39 39 38 40 42 44 48 51 51 47
8 7 7 6 6 6 5 6 7 8 10 11 10 8 7 8 8 8 9 9 9 10 9 9 8 8 9 7 7 11 13 12 13 15 16 17 18 19 21 21 21 23 22 22 21 20 18 14 13 14 14 14 14 13 12 13 13 13 15 18 19 19 18 23 28 27 28 32 32 34 37 38 39 38 39 41 43 41 40 40 39 37 38 41 45 48 48 46
8 8 8 7 7 7 6 6 8 10 11 11 9 9 8 8 8 8 9 10 11 12 11 11 11 9 8 7 7 8 12 13 11 13 15 16 17 18 21 21 21 23 23 22 22 20 18 16 15 15 14 15 14 13 12 13 15 13 12 14 15 18 17 20 27 28 27 30 31 32 38 40 38 37 38 38 39 42 42 42 42 39 37 39 43 47 49 47
9 9 8 8 8 7 6 7 10 12 12 11 10 10 8 8 8 8 11 14 16 17 15 14 14 12 9 8 8 8 10 12 11 13 14 15 16 17 20 20 20 23 24 23 22 20 18 17 16 15 14 14 14 13 12 12 18 17 12 11 12 16 17 19 26 28 27 30 29 30 35 39 37 35 35 35 36 41 43 44 45 42 37 37 39 43 46 47
9 9 9 9 8 9 8 9 12 14 13 12 11 9 8 8 8 9 15 22 25 21 18 18 17 15 13 10 9 8 7 9 10 12 14 14 15 15 19 20 20 22 23 25 24 21 19 18 17 15 13 14 14 14 12 11 15 16 12 10 10 13 16 18 22 27 26 26 27 27 28 33 35 34 33 32 33 38 44 45 45 43 38 34 35 38 42 45
10 10 11 10 10 11 11 10 14 15 14 12 11 9 9 8 8 11 19 27 26 21 20 21 18 17 17 15 10 7 7 8 10 11 13 15 15 13 16 18 20 21 22 24 24 21 20 19 16 14 14 14 13 12 12 12 13 14 13 13 11 11 14 16 19 24 26 25 26 26 27 30 33 32 31 31 31 35 41 43 42 42 38 33 33 36 42 44
12 12 12 12 13 13 12 13 15 16 14 11 10 10 9 9 10 13 24 28 23 22 25 23 20 20 20 18 14 9 8 9 11 12 13 15 15 13 13 17 19 21 22 22 23 21 21 19 17 15 14 13 13 12 12 12 12 12 13 15 15 13 13 14 16 21 24 26 26 25 26 30 33 31 30 30 31 31 36 39 38 37 36 32 32 36 42 43
13 13 13 15 16 14 13 14 15 14 13 12 12 12 11 12 13 19 30 30 21 22 27 25 23 22 21 19 18 14 10 9 12 14 15 15 16 15 13 16 19 21 21 21 22 21 20 20 18 16 13 14 15 15 13 12 12 13 14 15 16 14 13 13 14 17 23 25 25 24 23 26 30 31 28 28 28 28 29 33 34 34 33 32 32 34 37 39
15 15 16 19 19 17 16 15 15 15 15 14 13 13 15 17 18 22 27 25 23 24 26 26 24 24 23 22 22 20 16 12 12 17 20 18 18 18 16 17 19 21 22 20 20 21 21 21 21 17 15 15 17 18 16 14 13 14 15 15 15 14 14 14 13 14 20 20 18 19 21 22 26 28 27 26 26 25 24 28 32 34 34 33 32 33 35 37
16 18 21 22 22 19 18 17 15 16 15 14 13 16 21 22 23 24 22 23 26 26 26 27 26 25 26 26 26 26 24 18 15 17 21 22 22 21 18 17 18 19 21 19 19 21 21 20 20 19 17 15 17 18 17 16 15 15 16 15 16 17 16 16 16 14 15 15 13 14 18 20 21 23 24 27 28 26 25 28 31 33 35 34 31 33 35 38
18 20 24 26 25 22 19 17 16 17 15 15 17 21 24 27 28 24 21 26 29 25 25 27 27 28 29 29 30 30 28 26 21 19 20 22 25 24 21 19 18 18 19 19 19 19 20 21 20 20 19 16 16 17 17 17 16 15 16 15 15 17 17 17 16 13 13 13 11 11 14 15 17 17 18 23 26 26 26 29 31 32 36 37 32 31 33 36
21 23 27 28 28 26 21 19 19 17 16 17 22 23 24 29 32 25 21 24 25 25 27 26 27 32 33 35 39 38 33 31 29 27 25 23 25 26 25 23 19 18 20 21 20 19 21 23 19 18 19 19 17 16 16 16 16 14 14 13 14 14 15 16 14 13 14 14 10 10 11 11 13 13 13 16 20 23 24 26 28 30 35 39 34 29 31 32
26 26 29 31 33 31 25 22 21 19 19 23 26 27 28 32 34 30 25 24 25 28 28 26 30 38 41 44 47 44 37 34 33 32 30 27 25 26 26 25 23 22 22 23 20 18 21 21 19 19 20 20 18 16 16 16 16 14 13 13 13 12 13 13 13 12 13 14 13 11 9 9 9 10 11 11 13 17 18 19 23 25 28 33 31 29 29 32
33 30 31 34 37 37 30 26 26 25 25 28 31 32 32 34 35 33 28 24 26 29 29 28 33 43 47 48 50 45 38 39 38 33 32 29 26 26 27 27 25 24 23 22 20 20 21 20 20 22 22 19 19 18 17 17 16 15 14 13 12 12 12 12 14 13 12 15 16 12 10 9 8 8 9 9 9 11 11 12 18 22 22 26 28 26 27 30
36 33 35 36 38 40 37 31 29 30 30 34 38 39 36 34 33 31 28 24 25 28 31 32 36 45 49 49 51 47 42 45 45 41 40 35 31 35 37 35 33 31 28 24 22 23 23 21 21 24 22 21 20 20 19 18 16 14 14 12 12 13 12 12 15 16 16 16 14 11 11 10 10 9 8 8 8 8 8 8 13 19 23 28 30 25 24 28
38 39 41 38 36 41 40 34 33 34 36 40 45 45 40 36 32 28 27 26 24 26 31 35 39 47 50 49 51 50 48 52 50 48 50 45 43 47 49 48 48 46 42 37 32 27 25 26 25 23 22 21 21 22 22 19 17 15 14 13 13 14 13 12 14 17 18 18 14 12 11 10 11 10 8 9 9 8 9 8 10 16 23 31 32 26 25 28
44 46 47 42 41 44 41 37 38 41 45 49 49 45 40 37 34 28 25 26 27 26 30 35 39 46 49 49 50 52 54 58 57 57 58 55 51 52 51 54 55 51 47 43 37 30 28 30 29 24 22 23 24 23 22 20 18 16 16 16 15 15 14 12 12 14 17 19 18 16 14 13 12 11 8 10 11 10 10 10 9 13 19 25 28 25 25 27
50 54 55 50 49 48 41 37 43 49 53 53 48 42 40 37 33 29 27 28 30 30 32 34 37 43 48 48 49 51 56 60 60 61 63 60 58 57 53 53 56 52 45 37 31 28 28 30 30 29 27 27 25 23 19 19 18 17 17 17 17 15 15 14 12 11 13 19 22 21 21 18 15 14 12 11 11 11 11 11 10 10 14 19 21 22 23 23
56 59 59 54 50 47 42 38 42 51 55 51 45 43 42 40 35 32 31 31 32 35 36 36 36 42 45 48 51 52 57 62 61 60 61 62 67 66 58 54 58 58 50 39 33 32 34 35 33 32 33 29 25 21 18 19 18 18 17 16 15 14 14 14 15 12 10 14 18 21 25 25 20 18 17 14 14 12 10 11 11 11 13 17 19 21 21 21
61 59 56 51 47 45 42 39 44 54 57 54 52 50 47 44 41 37 35 35 38 41 41 41 43 43 42 45 52 53 55 60 60 59 62 65 71 72 65 61 61 62 59 50 42 39 40 39 36 33 34 31 26 23 22 21 20 20 18 16 15 14 12 14 16 15 11 11 12 15 21 26 23 20 18 16 16 14 11 11 11 11 13 16 18 19 20 22
66 62 54 47 46 46 44 43 47 56 60 58 58 56 50 48 45 40 39 42 46 45 42 44 45 44 42 44 50 54 57 61 61 63 67 68 69 70 70 68 64 62 61 54 45 41 38 37 38 36 33 31 29 27 24 23 23 22 20 18 17 15 13 13 15 15 13 12 12 13 18 22 23 21 18 18 18 15 12 12 12 11 12 15 16 17 20 22
70 65 56 49 48 47 47 46 49 57 62 62 61 59 54 52 49 46 44 45 48 46 43 45 46 45 43 42 46 52 59 67 69 68 70 70 68 67 70 71 66 62 59 55 53 51 43 42 47 46 40 35 32 29 27 27 26 24 21 20 18 17 16 15 16 16 16 14 12 14 17 19 23 24 20 19 20 18 15 14 12 10 12 15 16 16 18 20
70 65 58 53 51 49 51 52 52 59 65 66 65 63 57 54 55 54 49 45 47 49 48 48 46 44 42 41 43 47 56 71 77 71 70 70 68 67 68 70 69 65 59 59 60 54 45 44 50 53 49 42 38 35 31 29 28 26 23 22 20 19 18 19 18 17 19 18 14 13 15 16 19 23 21 20 21 19 17 16 14 11 11 15 18 17 17 17
74 68 59 54 52 51 55 57 56 63 70 69 69 66 59 56 57 57 53 50 52 51 47 46 45 43 42 41 44 49 56 69 73 68 69 71 69 69 69 70 70 66 63 64 62 52 43 43 47 51 52 47 43 41 35 30 29 28 26 24 22 19 19 21 20 19 21 21 18 17 17 16 16 18 20 21 21 20 19 19 19 16 13 15 19 19 18 17
80 75 66 60 58 54 55 58 58 65 73 71 69 68 65 62 59 57 57 57 56 49 43 43 47 47 44 43 48 54 60 63 64 64 68 69 69 69 69 71 70 66 65 67 64 55 48 46 47 48 48 45 43 40 38 34 29 27 25 24 23 20 19 21 21 20 21 22 22 20 19 18 18 17 19 21 20 19 19 18 20 20 16 14 16 19 20 18
83 79 72 68 66 60 58 60 62 69 74 72 72 71 69 67 63 63 62 58 53 48 43 45 49 48 46 48 51 56 61 61 59 65 69 68 68 70 70 72 71 65 65 67 66 61 52 48 49 49 45 44 42 41 41 38 31 28 27 24 24 22 18 19 21 21 21 22 25 26 21 19 21 19 19 19 17 16 17 15 17 20 18 14 15 18 20 20
87 82 74 70 69 64 61 64 67 73 76 75 76 74 70 69 67 68 67 61 54 49 45 46 48 44 45 50 51 55 62 61 59 64 70 70 71 71 73 75 71 66 66 69 70 66 57 50 50 50 46 44 44 44 43 40 35 32 30 26 25 23 19 18 20 22 23 22 24 27 25 22 21 20 19 19 17 16 15 14 15 18 18 16 16 17 19 22
91 86 78 74 71 64 62 65 69 73 76 78 80 78 75 74 73 72 70 65 58 53 48 49 48 43 42 47 49 53 58 60 59 62 66 72 74 73 74 76 73 69 68 70 72 69 63 54 48 49 48 43 45 46 43 40 37 36 33 29 27 26 22 20 20 21 23 23 22 28 31 28 25 23 22 23 22 20 17 16 16 18 19 18 18 19 21 23
94 91 84 77 71 65 63 67 69 73 79 80 81 80 78 78 78 74 69 64 60 55 51 51 50 46 45 48 50 53 54 54 56 57 59 68 73 71 71 73 73 72 71 71 73 70 65 55 48 49 51 45 45 49 46 40 38 38 37 32 29 27 24 21 20 20 23 24 25 29 34 33 29 27 26 27 27 25 22 20 18 18 18 18 20 23 26 27
94 94 88 79 73 66 64 67 70 73 78 81 82 82 81 80 79 76 73 67 61 57 54 52 50 50 52 54 56 56 53 52 52 52 54 62 67 66 66 66 70 74 73 72 73 70 66 59 50 50 54 50 48 51 48 43 43 44 40 34 30 28 26 21 19 20 22 24 26 31 34 34 31 30 28 26 27 26 24 21 20 19 17 17 20 24 29 34